Time,TemperatureF,DewpointF,PressureIn,WindDirection,WindDirectionDegrees,WindSpeedMPH,WindSpeedGustMPH,Humidity,HourlyPrecipIn,Conditions,Clouds,dailyrainin,SoftwareType,DateUTC
2013-11-04 00:01:00,30.2,-99.9,30.46,NNW,329,3.0,5.0,-999,0.00,,---,-99.99,VWS V14.01,2013-11-04 05:01:00,
2013-11-04 00:06:00,30.1,-99.9,30.46,NNW,327,2.0,5.0,-999,0.00,,---,-99.99,VWS V14.01,2013-11-04 05:06:00,
2013-11-04 00:11:00,30.1,-99.9,30.45,NNW,328,3.0,6.0,-999,0.00,,---,-99.99,VWS V14.01,2013-11-04 05:11:00,
2013-11-04 00:16:00,30.0,-99.9,30.46,NNW,328,2.0,6.0,-999,0.00,,---,-99.99,VWS V14.01,2013-11-04 05:16:00,
2013-11-04 00:21:00,29.9,-99.9,30.46,NNW,329,4.0,7.0,-999,0.00,,---,-99.99,VWS V14.01,2013-11-04 05:21:00,
2013-11-04 00:26:00,29.9,-99.9,30.46,NNW,330,2.0,7.0,-999,0.00,,---,-99.99,VWS V14.01,2013-11-04 05:26:00,
2013-11-04 00:31:00,29.7,-99.9,30.47,NNW,330,4.0,5.0,-999,0.00,,---,-99.99,VWS V14.01,2013-11-04 05:31:00,
2013-11-04 00:36:00,29.6,-99.9,30.47,NNW,338,4.0,6.0,-999,0.00,,---,-99.99,VWS V14.01,2013-11-04 05:36:00,
2013-11-04 00:41:00,29.5,-99.9,30.47,NNW,338,2.0,6.0,-999,0.00,,---,-99.99,VWS V14.01,2013-11-04 05:41:00,
2013-11-04 00:46:00,29.4,-99.9,30.47,NNW,338,3.0,6.0,-999,0.00,,---,-99.99,VWS V14.01,2013-11-04 05:46:00,
2013-11-04 00:51:00,29.4,-99.9,30.48,NNW,340,2.0,7.0,-999,0.00,,---,-99.99,VWS V14.01,2013-11-04 05:51:00,
2013-11-04 00:56:00,29.4,-99.9,30.48,NNW,346,4.0,7.0,-999,0.00,,---,-99.99,VWS V14.01,2013-11-04 05:56:00,
2013-11-04 01:01:00,29.4,-99.9,30.48,NNW,345,5.0,8.0,-999,0.00,,---,-99.99,VWS V14.01,2013-11-04 06:01:00,
2013-11-04 01:06:00,29.5,-99.9,30.49,NNW,342,6.0,8.0,-999,0.00,,---,-99.99,VWS V14.01,2013-11-04 06:06:00,
2013-11-04 01:11:00,29.5,-99.9,30.49,NNW,342,3.0,8.0,-999,0.00,,---,-99.99,VWS V14.01,2013-11-04 06:11:00,
2013-11-04 01:16:00,29.4,-99.9,30.49,NW,325,3.0,8.0,-999,0.00,,---,-99.99,VWS V14.01,2013-11-04 06:16:00,
2013-11-04 01:21:00,29.2,-99.9,30.49,NW,325,5.0,8.0,-999,0.00,,---,-99.99,VWS V14.01,2013-11-04 06:21:00,
2013-11-04 01:26:00,29.2,-99.9,30.50,NW,325,1.0,8.0,-999,0.00,,---,-99.99,VWS V14.01,2013-11-04 06:26:00,
2013-11-04 01:31:00,29.0,-99.9,30.50,NW,325,3.0,3.0,-999,0.00,,---,-99.99,VWS V14.01,2013-11-04 06:31:00,
2013-11-04 01:36:00,28.9,-99.9,30.50,NW,325,1.0,5.0,-999,0.00,,---,-99.99,VWS V14.01,2013-11-04 06:36:00,
2013-11-04 01:41:00,28.7,-99.9,30.50,NW,325,0.0,5.0,-999,0.00,,---,-99.99,VWS V14.01,2013-11-04 06:41:00,
2013-11-04 01:46:00,28.5,-99.9,30.51,NW,325,0.0,5.0,-999,0.00,,---,-99.99,VWS V14.01,2013-11-04 06:46:00,
2013-11-04 01:51:00,28.5,-99.9,30.51,NW,325,2.0,5.0,-999,0.00,,---,-99.99,VWS V14.01,2013-11-04 06:51:00,
2013-11-04 01:56:00,28.3,-99.9,30.51,NW,325,0.0,5.0,-999,0.00,,---,-99.99,VWS V14.01,2013-11-04 06:56:00,
2013-11-04 02:01:00,28.1,-99.9,30.51,NW,325,0.0,0.0,-999,0.00,,---,-99.99,VWS V14.01,2013-11-04 07:01:00,
2013-11-04 02:06:00,28.0,-99.9,30.52,NW,325,3.0,5.0,-999,0.00,,---,-99.99,VWS V14.01,2013-11-04 07:06:00,
2013-11-04 02:11:00,27.9,-99.9,30.52,NW,325,3.0,5.0,-999,0.00,,---,-99.99,VWS V14.01,2013-11-04 07:11:00,
2013-11-04 02:16:00,27.9,-99.9,30.52,NNW,327,0.0,7.0,-999,0.00,,---,-99.99,VWS V14.01,2013-11-04 07:16:00,
2013-11-04 02:21:00,27.9,-99.9,30.52,NNW,327,4.0,7.0,-999,0.00,,---,-99.99,VWS V14.01,2013-11-04 07:21:00,
2013-11-04 02:26:00,28.0,-99.9,30.52,NNW,327,2.0,7.0,-999,0.00,,---,-99.99,VWS V14.01,2013-11-04 07:26:00,
2013-11-04 02:31:00,28.1,-99.9,30.53,NNW,327,2.0,7.0,-999,0.00,,---,-99.99,VWS V14.01,2013-11-04 07:31:00,
2013-11-04 02:36:00,28.1,-99.9,30.52,NNW,327,2.0,7.0,-999,0.00,,---,-99.99,VWS V14.01,2013-11-04 07:36:00,
2013-11-04 02:41:00,28.2,-99.9,30.53,NNW,327,2.0,7.0,-999,0.00,,---,-99.99,VWS V14.01,2013-11-04 07:41:00,
2013-11-04 02:46:00,28.3,-99.9,30.53,NNW,327,3.0,7.0,-999,0.00,,---,-99.99,VWS V14.01,2013-11-04 07:46:00,
2013-11-04 02:51:00,28.4,-99.9,30.53,NNW,327,4.0,7.0,-999,0.00,,---,-99.99,VWS V14.01,2013-11-04 07:51:00,
2013-11-04 02:56:00,28.3,-99.9,30.54,NNW,328,3.0,7.0,-999,0.00,,---,-99.99,VWS V14.01,2013-11-04 07:56:00,
2013-11-04 03:01:00,28.3,-99.9,30.54,NNW,330,2.0,4.0,-999,0.00,,---,-99.99,VWS V14.01,2013-11-04 08:01:00,
2013-11-04 03:06:00,28.3,-99.9,30.54,NNW,330,5.0,6.0,-999,0.00,,---,-99.99,VWS V14.01,2013-11-04 08:06:00,
2013-11-04 03:11:00,28.3,-99.9,30.54,NNW,334,4.0,7.0,-999,0.00,,---,-99.99,VWS V14.01,2013-11-04 08:11:00,
2013-11-04 03:16:00,28.3,-99.9,30.55,NNW,328,4.0,8.0,-999,0.00,,---,-99.99,VWS V14.01,2013-11-04 08:16:00,
2013-11-04 03:21:00,28.3,-99.9,30.55,NNW,329,4.0,8.0,-999,0.00,,---,-99.99,VWS V14.01,2013-11-04 08:21:00,
2013-11-04 03:26:00,28.3,-99.9,30.56,NNW,329,2.0,8.0,-999,0.00,,---,-99.99,VWS V14.01,2013-11-04 08:26:00,
2013-11-04 03:31:00,28.3,-99.9,30.56,NNW,329,2.0,3.0,-999,0.00,,---,-99.99,VWS V14.01,2013-11-04 08:31:00,
2013-11-04 03:36:00,28.3,-99.9,30.56,NNW,329,2.0,5.0,-999,0.00,,---,-99.99,VWS V14.01,2013-11-04 08:36:00,
2013-11-04 03:41:00,28.2,-99.9,30.56,NNW,329,2.0,6.0,-999,0.00,,---,-99.99,VWS V14.01,2013-11-04 08:41:00,
2013-11-04 03:46:00,28.2,-99.9,30.56,NNW,329,5.0,6.0,-999,0.00,,---,-99.99,VWS V14.01,2013-11-04 08:46:00,
2013-11-04 03:51:00,28.1,-99.9,30.56,NNW,329,3.0,6.0,-999,0.00,,---,-99.99,VWS V14.01,2013-11-04 08:51:00,
2013-11-04 03:56:00,28.1,-99.9,30.56,NNW,329,4.0,6.0,-999,0.00,,---,-99.99,VWS V14.01,2013-11-04 08:56:00,
2013-11-04 04:01:00,28.1,-99.9,30.57,NNW,346,4.0,7.0,-999,0.00,,---,-99.99,VWS V14.01,2013-11-04 09:01:00,
2013-11-04 04:06:00,28.2,-99.9,30.57,NNW,346,4.0,7.0,-999,0.00,,---,-99.99,VWS V14.01,2013-11-04 09:06:00,
2013-11-04 04:11:00,28.0,-99.9,30.57,NNW,346,3.0,7.0,-999,0.00,,---,-99.99,VWS V14.01,2013-11-04 09:11:00,
2013-11-04 04:16:00,27.9,-99.9,30.58,NNW,346,3.0,7.0,-999,0.00,,---,-99.99,VWS V14.01,2013-11-04 09:16:00,
2013-11-04 04:21:00,27.8,-99.9,30.57,NNW,346,3.0,7.0,-999,0.00,,---,-99.99,VWS V14.01,2013-11-04 09:21:00,
2013-11-04 04:26:00,27.8,-99.9,30.57,NNW,346,5.0,7.0,-999,0.00,,---,-99.99,VWS V14.01,2013-11-04 09:26:00,
2013-11-04 04:31:00,27.7,-99.9,30.57,NNW,346,3.0,6.0,-999,0.00,,---,-99.99,VWS V14.01,2013-11-04 09:31:00,
2013-11-04 04:36:00,27.7,-99.9,30.58,NNW,340,5.0,8.0,-999,0.00,,---,-99.99,VWS V14.01,2013-11-04 09:36:00,
2013-11-04 04:41:00,27.6,-99.9,30.58,NNW,339,3.0,8.0,-999,0.00,,---,-99.99,VWS V14.01,2013-11-04 09:41:00,
2013-11-04 04:46:00,27.5,-99.9,30.58,NNW,339,4.0,8.0,-999,0.00,,---,-99.99,VWS V14.01,2013-11-04 09:46:00,
2013-11-04 04:51:00,27.4,-99.9,30.58,NNW,340,2.0,8.0,-999,0.00,,---,-99.99,VWS V14.01,2013-11-04 09:51:00,
2013-11-04 04:56:00,27.4,-99.9,30.58,NNW,340,3.0,8.0,-999,0.00,,---,-99.99,VWS V14.01,2013-11-04 09:56:00,
2013-11-04 05:01:00,27.4,-99.9,30.59,North,353,3.0,7.0,-999,0.00,,---,-99.99,VWS V14.01,2013-11-04 10:01:00,
2013-11-04 05:06:00,27.4,-99.9,30.59,NNW,347,4.0,7.0,-999,0.00,,---,-99.99,VWS V14.01,2013-11-04 10:06:00,
2013-11-04 05:11:00,27.4,-99.9,30.59,NNW,346,2.0,7.0,-999,0.00,,---,-99.99,VWS V14.01,2013-11-04 10:11:00,
2013-11-04 05:16:00,27.4,-99.9,30.60,NNW,343,3.0,7.0,-999,0.00,,---,-99.99,VWS V14.01,2013-11-04 10:16:00,
2013-11-04 05:21:00,27.3,-99.9,30.60,North,354,3.0,7.0,-999,0.00,,---,-99.99,VWS V14.01,2013-11-04 10:21:00,
2013-11-04 05:26:00,27.2,-99.9,30.60,North,350,4.0,7.0,-999,0.00,,---,-99.99,VWS V14.01,2013-11-04 10:26:00,
2013-11-04 05:31:00,27.2,-99.9,30.61,NNW,344,6.0,6.0,-999,0.00,,---,-99.99,VWS V14.01,2013-11-04 10:31:00,
2013-11-04 05:36:00,27.2,-99.9,30.61,NNW,343,4.0,6.0,-999,0.00,,---,-99.99,VWS V14.01,2013-11-04 10:36:00,
2013-11-04 05:41:00,27.2,-99.9,30.61,NNW,332,3.0,7.0,-999,0.00,,---,-99.99,VWS V14.01,2013-11-04 10:41:00,
2013-11-04 05:46:00,27.2,-99.9,30.61,NNW,332,3.0,7.0,-999,0.00,,---,-99.99,VWS V14.01,2013-11-04 10:46:00,
2013-11-04 05:51:00,27.1,-99.9,30.62,NNW,342,3.0,8.0,-999,0.00,,---,-99.99,VWS V14.01,2013-11-04 10:51:00,
2013-11-04 05:56:00,27.2,-99.9,30.62,NNW,342,3.0,8.0,-999,0.00,,---,-99.99,VWS V14.01,2013-11-04 10:56:00,
2013-11-04 06:01:00,27.1,-99.9,30.62,NNW,342,4.0,4.0,-999,0.00,,---,-99.99,VWS V14.01,2013-11-04 11:01:00,
2013-11-04 06:06:00,27.1,-99.9,30.63,NNW,341,3.0,6.0,-999,0.00,,---,-99.99,VWS V14.01,2013-11-04 11:06:00,
2013-11-04 06:11:00,27.1,-99.9,30.63,NNW,342,3.0,6.0,-999,0.00,,---,-99.99,VWS V14.01,2013-11-04 11:11:00,
2013-11-04 06:14:00,27.1,-99.9,30.63,NNW,342,4.0,6.0,-999,0.00,,---,-99.99,VWS V14.01,2013-11-04 11:14:00,
2013-11-04 06:19:00,27.0,-99.9,30.64,NNW,342,3.0,6.0,-999,0.00,,---,-99.99,VWS V14.01,2013-11-04 11:19:00,
2013-11-04 06:22:00,26.9,-99.9,30.63,NNW,342,4.0,6.0,-999,0.00,,---,-99.99,VWS V14.01,2013-11-04 11:22:00,
2013-11-04 06:27:00,26.9,-99.9,30.64,NNW,345,5.0,8.0,-999,0.00,,---,-99.99,VWS V14.01,2013-11-04 11:27:00,
2013-11-04 06:32:00,27.1,-99.9,30.64,North,358,7.0,7.0,-999,0.00,,---,-99.99,VWS V14.01,2013-11-04 11:32:00,
2013-11-04 06:37:00,27.3,-99.9,30.64,North,353,3.0,8.0,-999,0.00,,---,-99.99,VWS V14.01,2013-11-04 11:37:00,
2013-11-04 06:42:00,27.5,-99.9,30.64,North,0,6.0,8.0,-999,0.00,,---,-99.99,VWS V14.01,2013-11-04 11:42:00,
2013-11-04 06:47:00,27.6,-99.9,30.65,North,353,4.0,8.0,-999,0.00,,---,-99.99,VWS V14.01,2013-11-04 11:47:00,
2013-11-04 06:52:00,27.7,-99.9,30.65,North,353,4.0,8.0,-999,0.00,,---,-99.99,VWS V14.01,2013-11-04 11:52:00,
2013-11-04 07:08:00,27.9,-99.9,30.66,North,359,4.0,4.0,-999,0.00,,---,-99.99,VWS V14.01,2013-11-04 12:08:00,
2013-11-04 07:13:00,28.0,-99.9,30.65,North,352,3.0,7.0,-999,0.00,,---,-99.99,VWS V14.01,2013-11-04 12:13:00,
2013-11-04 07:18:00,28.1,-99.9,30.66,North,353,5.0,7.0,-999,0.00,,---,-99.99,VWS V14.01,2013-11-04 12:18:00,
2013-11-04 07:23:00,28.3,-99.9,30.66,North,351,4.0,7.0,-999,0.00,,---,-99.99,VWS V14.01,2013-11-04 12:23:00,
2013-11-04 07:28:00,28.5,-99.9,30.66,North,352,2.0,8.0,-999,0.00,,---,-99.99,VWS V14.01,2013-11-04 12:28:00,
2013-11-04 07:33:00,28.7,-99.9,30.66,North,353,6.0,8.0,-999,0.00,,---,-99.99,VWS V14.01,2013-11-04 12:33:00,
2013-11-04 07:38:00,28.9,-99.9,30.67,North,353,2.0,8.0,-999,0.00,,---,-99.99,VWS V14.01,2013-11-04 12:38:00,
2013-11-04 07:43:00,29.1,-99.9,30.67,North,353,3.0,8.0,-999,0.00,,---,-99.99,VWS V14.01,2013-11-04 12:43:00,
2013-11-04 07:48:00,29.5,-99.9,30.67,North,357,4.0,8.0,-999,0.00,,---,-99.99,VWS V14.01,2013-11-04 12:48:00,
2013-11-04 07:53:00,29.9,-99.9,30.67,North,356,6.0,8.0,-999,0.00,,---,-99.99,VWS V14.01,2013-11-04 12:53:00,
2013-11-04 07:58:00,30.3,-99.9,30.67,North,356,4.0,8.0,-999,0.00,,---,-99.99,VWS V14.01,2013-11-04 12:58:00,
2013-11-04 08:03:00,30.6,-99.9,30.67,North,355,5.0,9.0,-999,0.00,,---,-99.99,VWS V14.01,2013-11-04 13:03:00,
2013-11-04 08:08:00,31.1,-99.9,30.67,North,353,2.0,9.0,-999,0.00,,---,-99.99,VWS V14.01,2013-11-04 13:08:00,
2013-11-04 08:13:00,31.5,-99.9,30.67,North,0,4.0,10.0,-999,0.00,,---,-99.99,VWS V14.01,2013-11-04 13:13:00,
2013-11-04 08:18:00,31.8,-99.9,30.67,North,8,2.0,10.0,-999,0.00,,---,-99.99,VWS V14.01,2013-11-04 13:18:00,
2013-11-04 08:23:00,32.4,-99.9,30.67,North,0,8.0,13.0,-999,0.00,,---,-99.99,VWS V14.01,2013-11-04 13:23:00,
2013-11-04 08:28:00,32.7,-99.9,30.67,North,356,4.0,13.0,-999,0.00,,---,-99.99,VWS V14.01,2013-11-04 13:28:00,
2013-11-04 08:33:00,33.3,-99.9,30.67,North,5,3.0,7.0,-999,0.00,,---,-99.99,VWS V14.01,2013-11-04 13:33:00,
2013-11-04 08:38:00,33.7,-99.9,30.67,North,0,5.0,11.0,-999,0.00,,---,-99.99,VWS V14.01,2013-11-04 13:38:00,
2013-11-04 08:43:00,34.1,-99.9,30.67,North,0,13.0,13.0,-999,0.00,,---,-99.99,VWS V14.01,2013-11-04 13:43:00,
2013-11-04 08:48:00,34.4,-99.9,30.67,North,3,4.0,14.0,-999,0.00,,---,-99.99,VWS V14.01,2013-11-04 13:48:00,
2013-11-04 08:53:00,34.6,-99.9,30.67,North,349,9.0,14.0,-999,0.00,,---,-99.99,VWS V14.01,2013-11-04 13:53:00,
2013-11-04 08:58:00,34.8,-99.9,30.67,North,358,8.0,14.0,-999,0.00,,---,-99.99,VWS V14.01,2013-11-04 13:58:00,
2013-11-04 09:03:00,34.8,-99.9,30.67,NNE,14,4.0,8.0,-999,0.00,,---,-99.99,VWS V14.01,2013-11-04 14:03:00,
2013-11-04 09:08:00,35.1,-99.9,30.67,North,359,6.0,11.0,-999,0.00,,---,-99.99,VWS V14.01,2013-11-04 14:08:00,
2013-11-04 09:13:00,35.4,-99.9,30.67,North,0,8.0,12.0,-999,0.00,,---,-99.99,VWS V14.01,2013-11-04 14:13:00,
2013-11-04 09:18:00,35.5,-99.9,30.67,North,0,3.0,12.0,-999,0.00,,---,-99.99,VWS V14.01,2013-11-04 14:18:00,
2013-11-04 09:23:00,35.6,-99.9,30.67,North,0,5.0,12.0,-999,0.00,,---,-99.99,VWS V14.01,2013-11-04 14:23:00,
2013-11-04 09:28:00,36.0,-99.9,30.67,NNW,342,7.0,12.0,-999,0.00,,---,-99.99,VWS V14.01,2013-11-04 14:28:00,
2013-11-04 09:33:00,36.3,-99.9,30.68,NNE,13,4.0,10.0,-999,0.00,,---,-99.99,VWS V14.01,2013-11-04 14:33:00,
2013-11-04 09:38:00,36.4,-99.9,30.67,North,356,4.0,11.0,-999,0.00,,---,-99.99,VWS V14.01,2013-11-04 14:38:00,
2013-11-04 09:43:00,36.7,-99.9,30.68,NNE,32,4.0,13.0,-999,0.00,,---,-99.99,VWS V14.01,2013-11-04 14:43:00,
2013-11-04 09:48:00,37.1,-99.9,30.68,NNE,25,4.0,13.0,-999,0.00,,---,-99.99,VWS V14.01,2013-11-04 14:48:00,
2013-11-04 09:53:00,37.5,-99.9,30.68,North,6,5.0,13.0,-999,0.00,,---,-99.99,VWS V14.01,2013-11-04 14:53:00,
2013-11-04 09:58:00,37.3,-99.9,30.68,North,0,3.0,13.0,-999,0.00,,---,-99.99,VWS V14.01,2013-11-04 14:58:00,
2013-11-04 10:03:00,37.1,-99.9,30.67,North,359,12.0,12.0,-999,0.00,,---,-99.99,VWS V14.01,2013-11-04 15:03:00,
2013-11-04 10:08:00,37.0,-99.9,30.67,North,0,9.0,12.0,-999,0.00,,---,-99.99,VWS V14.01,2013-11-04 15:08:00,
2013-11-04 10:13:00,37.0,-99.9,30.67,North,0,1.0,12.0,-999,0.00,,---,-99.99,VWS V14.01,2013-11-04 15:13:00,
2013-11-04 10:18:00,37.0,-99.9,30.67,North,6,5.0,12.0,-999,0.00,,---,-99.99,VWS V14.01,2013-11-04 15:18:00,
2013-11-04 10:23:00,37.1,-99.9,30.67,North,3,2.0,12.0,-999,0.00,,---,-99.99,VWS V14.01,2013-11-04 15:23:00,
2013-11-04 10:28:00,37.2,-99.9,30.67,North,5,9.0,12.0,-999,0.00,,---,-99.99,VWS V14.01,2013-11-04 15:28:00,
2013-11-04 10:33:00,37.3,-99.9,30.68,NNW,331,5.0,9.0,-999,0.00,,---,-99.99,VWS V14.01,2013-11-04 15:33:00,
2013-11-04 10:38:00,37.5,-99.9,30.68,NE,42,4.0,9.0,-999,0.00,,---,-99.99,VWS V14.01,2013-11-04 15:38:00,
2013-11-04 10:43:00,37.6,-99.9,30.68,North,3,7.0,11.0,-999,0.00,,---,-99.99,VWS V14.01,2013-11-04 15:43:00,
2013-11-04 10:48:00,37.3,-99.9,30.68,NE,54,3.0,11.0,-999,0.00,,---,-99.99,VWS V14.01,2013-11-04 15:48:00,
2013-11-04 10:53:00,37.3,-99.9,30.68,North,359,7.0,11.0,-999,0.00,,---,-99.99,VWS V14.01,2013-11-04 15:53:00,
2013-11-04 10:58:00,37.5,-99.9,30.68,North,0,3.0,11.0,-999,0.00,,---,-99.99,VWS V14.01,2013-11-04 15:58:00,
2013-11-04 11:03:00,37.7,-99.9,30.68,North,354,7.0,10.0,-999,0.00,,---,-99.99,VWS V14.01,2013-11-04 16:03:00,
2013-11-04 11:08:00,37.8,-99.9,30.67,NW,318,3.0,11.0,-999,0.00,,---,-99.99,VWS V14.01,2013-11-04 16:08:00,
2013-11-04 11:13:00,37.8,-99.9,30.68,NNW,327,8.0,14.0,-999,0.00,,---,-99.99,VWS V14.01,2013-11-04 16:13:00,
2013-11-04 11:18:00,37.9,-99.9,30.68,NNW,335,5.0,14.0,-999,0.00,,---,-99.99,VWS V14.01,2013-11-04 16:18:00,
2013-11-04 11:23:00,38.1,-99.9,30.68,North,1,3.0,14.0,-999,0.00,,---,-99.99,VWS V14.01,2013-11-04 16:23:00,
2013-11-04 11:28:00,38.1,-99.9,30.68,North,0,0.0,14.0,-999,0.00,,---,-99.99,VWS V14.01,2013-11-04 16:28:00,
2013-11-04 11:33:00,38.2,-99.9,30.68,NNW,332,5.0,7.0,-999,0.00,,---,-99.99,VWS V14.01,2013-11-04 16:33:00,
2013-11-04 11:38:00,38.4,-99.9,30.68,North,0,1.0,9.0,-999,0.00,,---,-99.99,VWS V14.01,2013-11-04 16:38:00,
2013-11-04 11:43:00,38.7,-99.9,30.68,North,359,8.0,9.0,-999,0.00,,---,-99.99,VWS V14.01,2013-11-04 16:43:00,
2013-11-04 11:48:00,38.9,-99.9,30.68,North,0,1.0,9.0,-999,0.00,,---,-99.99,VWS V14.01,2013-11-04 16:48:00,
2013-11-04 11:53:00,39.0,-99.9,30.68,WNW,284,1.0,9.0,-999,0.00,,---,-99.99,VWS V14.01,2013-11-04 16:53:00,
2013-11-04 11:58:00,39.4,-99.9,30.68,WSW,243,2.0,9.0,-999,0.00,,---,-99.99,VWS V14.01,2013-11-04 16:58:00,
2013-11-04 12:03:00,39.8,-99.9,30.67,WSW,254,1.0,4.0,-999,0.00,,---,-99.99,VWS V14.01,2013-11-04 17:03:00,
2013-11-04 12:08:00,40.0,-99.9,30.68,North,6,2.0,7.0,-999,0.00,,---,-99.99,VWS V14.01,2013-11-04 17:08:00,
2013-11-04 12:13:00,39.7,-99.9,30.68,NW,326,2.0,7.0,-999,0.00,,---,-99.99,VWS V14.01,2013-11-04 17:13:00,
2013-11-04 12:18:00,39.5,-99.9,30.68,NNW,347,3.0,10.0,-999,0.00,,---,-99.99,VWS V14.01,2013-11-04 17:18:00,
2013-11-04 12:23:00,39.4,-99.9,30.67,NW,315,0.0,10.0,-999,0.00,,---,-99.99,VWS V14.01,2013-11-04 17:23:00,
2013-11-04 12:28:00,39.5,-99.9,30.67,North,0,4.0,10.0,-999,0.00,,---,-99.99,VWS V14.01,2013-11-04 17:28:00,
2013-11-04 12:33:00,39.6,-99.9,30.67,NNW,333,4.0,7.0,-999,0.00,,---,-99.99,VWS V14.01,2013-11-04 17:33:00,
2013-11-04 12:38:00,39.6,-99.9,30.67,NNW,342,3.0,11.0,-999,0.00,,---,-99.99,VWS V14.01,2013-11-04 17:38:00,
2013-11-04 12:43:00,39.7,-99.9,30.67,North,0,0.0,11.0,-999,0.00,,---,-99.99,VWS V14.01,2013-11-04 17:43:00,
2013-11-04 12:48:00,39.5,-99.9,30.66,NNE,18,1.0,11.0,-999,0.00,,---,-99.99,VWS V14.01,2013-11-04 17:48:00,
2013-11-04 12:53:00,39.5,-99.9,30.66,North,349,1.0,11.0,-999,0.00,,---,-99.99,VWS V14.01,2013-11-04 17:53:00,
2013-11-04 12:58:00,39.6,-99.9,30.66,North,0,4.0,11.0,-999,0.00,,---,-99.99,VWS V14.01,2013-11-04 17:58:00,
2013-11-04 13:03:00,39.7,-99.9,30.66,North,359,6.0,10.0,-999,0.00,,---,-99.99,VWS V14.01,2013-11-04 18:03:00,
2013-11-04 13:08:00,39.9,-99.9,30.65,North,11,4.0,10.0,-999,0.00,,---,-99.99,VWS V14.01,2013-11-04 18:08:00,
2013-11-04 13:13:00,39.9,-99.9,30.65,North,0,1.0,10.0,-999,0.00,,---,-99.99,VWS V14.01,2013-11-04 18:13:00,
2013-11-04 13:18:00,39.9,-99.9,30.66,North,0,2.0,10.0,-999,0.00,,---,-99.99,VWS V14.01,2013-11-04 18:18:00,
2013-11-04 13:23:00,40.1,-99.9,30.66,North,1,7.0,10.0,-999,0.00,,---,-99.99,VWS V14.01,2013-11-04 18:23:00,
2013-11-04 13:28:00,40.2,-99.9,30.65,NNE,13,1.0,10.0,-999,0.00,,---,-99.99,VWS V14.01,2013-11-04 18:28:00,
2013-11-04 13:33:00,40.1,-99.9,30.66,North,3,3.0,6.0,-999,0.00,,---,-99.99,VWS V14.01,2013-11-04 18:33:00,
2013-11-04 13:38:00,40.2,-99.9,30.65,North,0,0.0,6.0,-999,0.00,,---,-99.99,VWS V14.01,2013-11-04 18:38:00,
2013-11-04 13:43:00,40.4,-99.9,30.66,North,0,0.0,6.0,-999,0.00,,---,-99.99,VWS V14.01,2013-11-04 18:43:00,
2013-11-04 13:48:00,40.5,-99.9,30.66,NW,312,3.0,6.0,-999,0.00,,---,-99.99,VWS V14.01,2013-11-04 18:48:00,
2013-11-04 13:53:00,40.5,-99.9,30.66,North,0,3.0,9.0,-999,0.00,,---,-99.99,VWS V14.01,2013-11-04 18:53:00,
2013-11-04 13:58:00,40.4,-99.9,30.66,North,358,3.0,9.0,-999,0.00,,---,-99.99,VWS V14.01,2013-11-04 18:58:00,
2013-11-04 14:03:00,40.3,-99.9,30.66,North,0,3.0,6.0,-999,0.00,,---,-99.99,VWS V14.01,2013-11-04 19:03:00,
2013-11-04 14:08:00,40.4,-99.9,30.66,NNE,16,4.0,6.0,-999,0.00,,---,-99.99,VWS V14.01,2013-11-04 19:08:00,
2013-11-04 14:13:00,40.6,-99.9,30.66,North,0,5.0,8.0,-999,0.00,,---,-99.99,VWS V14.01,2013-11-04 19:13:00,
2013-11-04 14:18:00,40.6,-99.9,30.66,North,2,2.0,9.0,-999,0.00,,---,-99.99,VWS V14.01,2013-11-04 19:18:00,
2013-11-04 14:23:00,40.7,-99.9,30.66,NE,34,0.0,9.0,-999,0.00,,---,-99.99,VWS V14.01,2013-11-04 19:23:00,
2013-11-04 14:28:00,40.6,-99.9,30.66,NNE,32,3.0,9.0,-999,0.00,,---,-99.99,VWS V14.01,2013-11-04 19:28:00,
2013-11-04 14:33:00,40.6,-99.9,30.66,North,0,4.0,6.0,-999,0.00,,---,-99.99,VWS V14.01,2013-11-04 19:33:00,
2013-11-04 14:38:00,40.5,-99.9,30.66,North,0,3.0,6.0,-999,0.00,,---,-99.99,VWS V14.01,2013-11-04 19:38:00,
2013-11-04 14:43:00,40.5,-99.9,30.66,North,0,0.0,6.0,-999,0.00,,---,-99.99,VWS V14.01,2013-11-04 19:43:00,
2013-11-04 14:48:00,40.6,-99.9,30.66,North,0,1.0,6.0,-999,0.00,,---,-99.99,VWS V14.01,2013-11-04 19:48:00,
2013-11-04 14:53:00,40.7,-99.9,30.67,North,8,5.0,6.0,-999,0.00,,---,-99.99,VWS V14.01,2013-11-04 19:53:00,
2013-11-04 14:58:00,40.7,-99.9,30.67,NNE,32,4.0,6.0,-999,0.00,,---,-99.99,VWS V14.01,2013-11-04 19:58:00,
2013-11-04 15:03:00,40.7,-99.9,30.67,NNE,23,5.0,5.0,-999,0.00,,---,-99.99,VWS V14.01,2013-11-04 20:03:00,
2013-11-04 15:08:00,40.6,-99.9,30.67,North,9,1.0,6.0,-999,0.00,,---,-99.99,VWS V14.01,2013-11-04 20:08:00,
2013-11-04 15:13:00,40.5,-99.9,30.67,North,9,0.0,6.0,-999,0.00,,---,-99.99,VWS V14.01,2013-11-04 20:13:00,
2013-11-04 15:18:00,40.4,-99.9,30.67,North,9,1.0,6.0,-999,0.00,,---,-99.99,VWS V14.01,2013-11-04 20:18:00,
2013-11-04 15:23:00,40.3,-99.9,30.67,North,9,0.0,6.0,-999,0.00,,---,-99.99,VWS V14.01,2013-11-04 20:23:00,
2013-11-04 15:28:00,40.2,-99.9,30.68,North,9,2.0,6.0,-999,0.00,,---,-99.99,VWS V14.01,2013-11-04 20:28:00,
2013-11-04 15:33:00,40.0,-99.9,30.67,North,11,2.0,4.0,-999,0.00,,---,-99.99,VWS V14.01,2013-11-04 20:33:00,
2013-11-04 15:38:00,39.9,-99.9,30.68,North,11,0.0,4.0,-999,0.00,,---,-99.99,VWS V14.01,2013-11-04 20:38:00,
2013-11-04 15:43:00,39.8,-99.9,30.68,North,11,0.0,4.0,-999,0.00,,---,-99.99,VWS V14.01,2013-11-04 20:43:00,
2013-11-04 15:48:00,39.7,-99.9,30.68,North,11,0.0,4.0,-999,0.00,,---,-99.99,VWS V14.01,2013-11-04 20:48:00,
2013-11-04 15:53:00,39.5,-99.9,30.68,North,11,0.0,4.0,-999,0.00,,---,-99.99,VWS V14.01,2013-11-04 20:53:00,
2013-11-04 15:58:00,39.2,-99.9,30.68,North,11,0.0,4.0,-999,0.00,,---,-99.99,VWS V14.01,2013-11-04 20:58:00,
2013-11-04 16:03:00,39.0,-99.9,30.68,North,11,1.0,1.0,-999,0.00,,---,-99.99,VWS V14.01,2013-11-04 21:03:00,
2013-11-04 16:08:00,38.8,-99.9,30.68,North,11,0.0,2.0,-999,0.00,,---,-99.99,VWS V14.01,2013-11-04 21:08:00,
2013-11-04 16:13:00,38.4,-99.9,30.68,North,11,0.0,2.0,-999,0.00,,---,-99.99,VWS V14.01,2013-11-04 21:13:00,
2013-11-04 16:18:00,38.1,-99.9,30.69,North,11,0.0,2.0,-999,0.00,,---,-99.99,VWS V14.01,2013-11-04 21:18:00,
2013-11-04 16:23:00,37.8,-99.9,30.69,North,11,0.0,2.0,-999,0.00,,---,-99.99,VWS V14.01,2013-11-04 21:23:00,
2013-11-04 16:28:00,37.6,-99.9,30.69,North,11,0.0,2.0,-999,0.00,,---,-99.99,VWS V14.01,2013-11-04 21:28:00,
2013-11-04 16:33:00,37.2,-99.9,30.69,North,11,0.0,0.0,-999,0.00,,---,-99.99,VWS V14.01,2013-11-04 21:33:00,
2013-11-04 16:38:00,36.9,-99.9,30.69,North,11,0.0,0.0,-999,0.00,,---,-99.99,VWS V14.01,2013-11-04 21:38:00,
2013-11-04 16:43:00,36.5,-99.9,30.70,North,11,0.0,0.0,-999,0.00,,---,-99.99,VWS V14.01,2013-11-04 21:43:00,
2013-11-04 16:48:00,36.1,-99.9,30.70,North,11,0.0,1.0,-999,0.00,,---,-99.99,VWS V14.01,2013-11-04 21:48:00,
2013-11-04 16:53:00,35.7,-99.9,30.70,North,11,0.0,1.0,-999,0.00,,---,-99.99,VWS V14.01,2013-11-04 21:53:00,
2013-11-04 16:58:00,35.4,-99.9,30.70,North,11,0.0,1.0,-999,0.00,,---,-99.99,VWS V14.01,2013-11-04 21:58:00,
2013-11-04 17:03:00,35.0,-99.9,30.70,North,11,0.0,0.0,-999,0.00,,---,-99.99,VWS V14.01,2013-11-04 22:03:00,
2013-11-04 17:08:00,34.7,-99.9,30.70,North,11,0.0,0.0,-999,0.00,,---,-99.99,VWS V14.01,2013-11-04 22:08:00,
2013-11-04 17:13:00,34.3,-99.9,30.70,North,11,0.0,0.0,-999,0.00,,---,-99.99,VWS V14.01,2013-11-04 22:13:00,
2013-11-04 17:18:00,34.0,-99.9,30.70,North,11,0.0,0.0,-999,0.00,,---,-99.99,VWS V14.01,2013-11-04 22:18:00,
2013-11-04 17:23:00,33.6,-99.9,30.70,North,11,0.0,0.0,-999,0.00,,---,-99.99,VWS V14.01,2013-11-04 22:23:00,
2013-11-04 17:28:00,33.2,-99.9,30.70,North,11,0.0,0.0,-999,0.00,,---,-99.99,VWS V14.01,2013-11-04 22:28:00,
2013-11-04 17:33:00,33.0,-99.9,30.70,North,11,0.0,0.0,-999,0.00,,---,-99.99,VWS V14.01,2013-11-04 22:33:00,
2013-11-04 17:38:00,32.6,-99.9,30.71,North,11,0.0,1.0,-999,0.00,,---,-99.99,VWS V14.01,2013-11-04 22:38:00,
2013-11-04 17:43:00,32.4,-99.9,30.71,North,11,0.0,1.0,-999,0.00,,---,-99.99,VWS V14.01,2013-11-04 22:43:00,
2013-11-04 17:48:00,32.0,-99.9,30.72,North,11,0.0,1.0,-999,0.00,,---,-99.99,VWS V14.01,2013-11-04 22:48:00,
2013-11-04 17:53:00,31.6,-99.9,30.71,North,11,0.0,1.0,-999,0.00,,---,-99.99,VWS V14.01,2013-11-04 22:53:00,
2013-11-04 17:58:00,31.1,-99.9,30.71,North,11,0.0,1.0,-999,0.00,,---,-99.99,VWS V14.01,2013-11-04 22:58:00,
2013-11-04 18:03:00,30.8,-99.9,30.71,North,11,0.0,0.0,-999,0.00,,---,-99.99,VWS V14.01,2013-11-04 23:03:00,
2013-11-04 18:08:00,30.5,-99.9,30.72,North,11,0.0,0.0,-999,0.00,,---,-99.99,VWS V14.01,2013-11-04 23:08:00,
2013-11-04 18:12:00,30.3,-99.9,30.72,North,11,0.0,0.0,-999,0.00,,---,-99.99,VWS V14.01,2013-11-04 23:12:00,
2013-11-04 18:17:00,30.1,-99.9,30.72,North,11,0.0,0.0,-999,0.00,,---,-99.99,VWS V14.01,2013-11-04 23:17:00,
2013-11-04 18:22:00,30.0,-99.9,30.72,North,11,0.0,0.0,-999,0.00,,---,-99.99,VWS V14.01,2013-11-04 23:22:00,
2013-11-04 18:27:00,29.8,-99.9,30.71,North,11,0.0,0.0,-999,0.00,,---,-99.99,VWS V14.01,2013-11-04 23:27:00,
2013-11-04 18:32:00,29.6,-99.9,30.71,North,11,0.0,0.0,-999,0.00,,---,-99.99,VWS V14.01,2013-11-04 23:32:00,
2013-11-04 18:37:00,29.4,-99.9,30.72,North,11,0.0,0.0,-999,0.00,,---,-99.99,VWS V14.01,2013-11-04 23:37:00,
2013-11-04 18:42:00,29.2,-99.9,30.72,North,11,0.0,0.0,-999,0.00,,---,-99.99,VWS V14.01,2013-11-04 23:42:00,
2013-11-04 18:47:00,28.9,-99.9,30.72,North,11,0.0,0.0,-999,0.00,,---,-99.99,VWS V14.01,2013-11-04 23:47:00,
2013-11-04 18:52:00,28.7,-99.9,30.72,North,11,0.0,0.0,-999,0.00,,---,-99.99,VWS V14.01,2013-11-04 23:52:00,
2013-11-04 18:57:00,28.5,-99.9,30.72,North,11,0.0,0.0,-999,0.00,,---,-99.99,VWS V14.01,2013-11-04 23:57:00,
2013-11-04 19:02:00,28.2,-99.9,30.72,North,11,0.0,0.0,-999,0.00,,---,-99.99,VWS V14.01,2013-11-05 00:02:00,
2013-11-04 19:07:00,28.1,-99.9,30.72,North,11,0.0,0.0,-999,0.00,,---,-99.99,VWS V14.01,2013-11-05 00:07:00,
2013-11-04 19:12:00,27.9,-99.9,30.72,North,11,0.0,0.0,-999,0.00,,---,-99.99,VWS V14.01,2013-11-05 00:12:00,
2013-11-04 19:17:00,27.8,-99.9,30.72,North,11,0.0,0.0,-999,0.00,,---,-99.99,VWS V14.01,2013-11-05 00:17:00,
2013-11-04 19:22:00,27.7,-99.9,30.72,North,11,0.0,0.0,-999,0.00,,---,-99.99,VWS V14.01,2013-11-05 00:22:00,
2013-11-04 19:27:00,27.5,-99.9,30.73,North,11,0.0,0.0,-999,0.00,,---,-99.99,VWS V14.01,2013-11-05 00:27:00,
2013-11-04 19:32:00,27.4,-99.9,30.73,North,11,0.0,0.0,-999,0.00,,---,-99.99,VWS V14.01,2013-11-05 00:32:00,
2013-11-04 19:37:00,27.3,-99.9,30.73,North,11,0.0,0.0,-999,0.00,,---,-99.99,VWS V14.01,2013-11-05 00:37:00,
2013-11-04 19:42:00,27.2,-99.9,30.72,North,11,0.0,0.0,-999,0.00,,---,-99.99,VWS V14.01,2013-11-05 00:42:00,
2013-11-04 19:47:00,27.1,-99.9,30.73,North,11,0.0,0.0,-999,0.00,,---,-99.99,VWS V14.01,2013-11-05 00:47:00,
2013-11-04 19:52:00,27.0,-99.9,30.72,North,11,0.0,0.0,-999,0.00,,---,-99.99,VWS V14.01,2013-11-05 00:52:00,
2013-11-04 19:57:00,26.8,-99.9,30.72,North,11,0.0,0.0,-999,0.00,,---,-99.99,VWS V14.01,2013-11-05 00:57:00,
2013-11-04 20:02:00,26.7,-99.9,30.72,North,11,0.0,0.0,-999,0.00,,---,-99.99,VWS V14.01,2013-11-05 01:02:00,
2013-11-04 20:07:00,26.5,-99.9,30.72,North,11,0.0,0.0,-999,0.00,,---,-99.99,VWS V14.01,2013-11-05 01:07:00,
2013-11-04 20:12:00,26.4,-99.9,30.72,North,11,0.0,0.0,-999,0.00,,---,-99.99,VWS V14.01,2013-11-05 01:12:00,
2013-11-04 20:17:00,26.3,-99.9,30.72,North,11,0.0,0.0,-999,0.00,,---,-99.99,VWS V14.01,2013-11-05 01:17:00,
2013-11-04 20:22:00,26.1,-99.9,30.72,North,11,0.0,0.0,-999,0.00,,---,-99.99,VWS V14.01,2013-11-05 01:22:00,
2013-11-04 20:27:00,26.0,-99.9,30.72,North,11,0.0,0.0,-999,0.00,,---,-99.99,VWS V14.01,2013-11-05 01:27:00,
2013-11-04 20:32:00,25.8,-99.9,30.72,North,11,0.0,0.0,-999,0.00,,---,-99.99,VWS V14.01,2013-11-05 01:32:00,
2013-11-04 20:37:00,25.7,-99.9,30.72,North,11,0.0,0.0,-999,0.00,,---,-99.99,VWS V14.01,2013-11-05 01:37:00,
2013-11-04 20:42:00,25.6,-99.9,30.72,North,11,0.0,0.0,-999,0.00,,---,-99.99,VWS V14.01,2013-11-05 01:42:00,
2013-11-04 20:47:00,25.5,-99.9,30.72,North,11,0.0,0.0,-999,0.00,,---,-99.99,VWS V14.01,2013-11-05 01:47:00,
2013-11-04 20:52:00,25.4,-99.9,30.72,North,11,0.0,0.0,-999,0.00,,---,-99.99,VWS V14.01,2013-11-05 01:52:00,
2013-11-04 20:57:00,25.2,-99.9,30.72,North,11,0.0,0.0,-999,0.00,,---,-99.99,VWS V14.01,2013-11-05 01:57:00,
2013-11-04 21:02:00,25.2,-99.9,30.73,North,11,0.0,0.0,-999,0.00,,---,-99.99,VWS V14.01,2013-11-05 02:02:00,
2013-11-04 21:07:00,25.1,-99.9,30.73,North,11,0.0,0.0,-999,0.00,,---,-99.99,VWS V14.01,2013-11-05 02:07:00,
2013-11-04 21:12:00,25.0,-99.9,30.72,North,11,0.0,0.0,-999,0.00,,---,-99.99,VWS V14.01,2013-11-05 02:12:00,
2013-11-04 21:17:00,24.8,-99.9,30.73,North,11,0.0,0.0,-999,0.00,,---,-99.99,VWS V14.01,2013-11-05 02:17:00,
2013-11-04 21:22:00,24.7,-99.9,30.73,North,11,0.0,0.0,-999,0.00,,---,-99.99,VWS V14.01,2013-11-05 02:22:00,
2013-11-04 21:27:00,24.6,-99.9,30.73,North,11,0.0,0.0,-999,0.00,,---,-99.99,VWS V14.01,2013-11-05 02:27:00,
2013-11-04 21:32:00,24.5,-99.9,30.73,North,11,0.0,0.0,-999,0.00,,---,-99.99,VWS V14.01,2013-11-05 02:32:00,
2013-11-04 21:37:00,24.5,-99.9,30.73,North,11,0.0,0.0,-999,0.00,,---,-99.99,VWS V14.01,2013-11-05 02:37:00,
2013-11-04 21:42:00,24.4,-99.9,30.73,North,11,0.0,0.0,-999,0.00,,---,-99.99,VWS V14.01,2013-11-05 02:42:00,
2013-11-04 21:47:00,24.4,-99.9,30.73,North,11,0.0,0.0,-999,0.00,,---,-99.99,VWS V14.01,2013-11-05 02:47:00,
2013-11-04 21:52:00,24.4,-99.9,30.72,North,11,0.0,0.0,-999,0.00,,---,-99.99,VWS V14.01,2013-11-05 02:52:00,
2013-11-04 21:57:00,24.3,-99.9,30.73,North,11,0.0,0.0,-999,0.00,,---,-99.99,VWS V14.01,2013-11-05 02:57:00,
2013-11-04 22:03:00,24.3,-99.9,30.73,North,11,0.0,0.0,-999,0.00,,---,-99.99,VWS V14.01,2013-11-05 03:03:00,
2013-11-04 22:08:00,24.2,-99.9,30.73,North,11,0.0,0.0,-999,0.00,,---,-99.99,VWS V14.01,2013-11-05 03:08:00,
2013-11-04 22:13:00,24.2,-99.9,30.72,North,11,0.0,0.0,-999,0.00,,---,-99.99,VWS V14.01,2013-11-05 03:13:00,
2013-11-04 22:18:00,24.2,-99.9,30.72,North,11,0.0,0.0,-999,0.00,,---,-99.99,VWS V14.01,2013-11-05 03:18:00,
2013-11-04 22:23:00,24.2,-99.9,30.72,North,11,0.0,0.0,-999,0.00,,---,-99.99,VWS V14.01,2013-11-05 03:23:00,
2013-11-04 22:28:00,24.2,-99.9,30.72,North,11,0.0,0.0,-999,0.00,,---,-99.99,VWS V14.01,2013-11-05 03:28:00,
2013-11-04 22:33:00,24.1,-99.9,30.72,North,11,0.0,0.0,-999,0.00,,---,-99.99,VWS V14.01,2013-11-05 03:33:00,
2013-11-04 22:38:00,24.0,-99.9,30.72,North,11,0.0,0.0,-999,0.00,,---,-99.99,VWS V14.01,2013-11-05 03:38:00,
2013-11-04 22:43:00,24.0,-99.9,30.73,North,11,0.0,0.0,-999,0.00,,---,-99.99,VWS V14.01,2013-11-05 03:43:00,
2013-11-04 22:48:00,23.9,-99.9,30.73,North,11,0.0,0.0,-999,0.00,,---,-99.99,VWS V14.01,2013-11-05 03:48:00,
2013-11-04 22:53:00,23.9,-99.9,30.73,North,11,0.0,0.0,-999,0.00,,---,-99.99,VWS V14.01,2013-11-05 03:53:00,
2013-11-04 22:58:00,23.8,-99.9,30.73,North,11,0.0,0.0,-999,0.00,,---,-99.99,VWS V14.01,2013-11-05 03:58:00,
2013-11-04 23:03:00,23.7,-99.9,30.73,North,11,0.0,0.0,-999,0.00,,---,-99.99,VWS V14.01,2013-11-05 04:03:00,
2013-11-04 23:08:00,23.7,-99.9,30.73,North,11,0.0,0.0,-999,0.00,,---,-99.99,VWS V14.01,2013-11-05 04:08:00,
2013-11-04 23:13:00,23.7,-99.9,30.73,North,11,0.0,0.0,-999,0.00,,---,-99.99,VWS V14.01,2013-11-05 04:13:00,
2013-11-04 23:18:00,23.6,-99.9,30.73,North,11,0.0,3.0,-999,0.00,,---,-99.99,VWS V14.01,2013-11-05 04:18:00,
2013-11-04 23:23:00,23.5,-99.9,30.73,North,11,0.0,3.0,-999,0.00,,---,-99.99,VWS V14.01,2013-11-05 04:23:00,
2013-11-04 23:28:00,23.5,-99.9,30.73,North,11,0.0,3.0,-999,0.00,,---,-99.99,VWS V14.01,2013-11-05 04:28:00,
2013-11-04 23:32:00,23.5,-99.9,30.74,North,11,0.0,0.0,-999,0.00,,---,-99.99,VWS V14.01,2013-11-05 04:32:00,
2013-11-04 23:37:00,23.5,-99.9,30.74,North,11,0.0,0.0,-999,0.00,,---,-99.99,VWS V14.01,2013-11-05 04:37:00,
2013-11-04 23:42:00,23.5,-99.9,30.74,North,11,0.0,0.0,-999,0.00,,---,-99.99,VWS V14.01,2013-11-05 04:42:00,
2013-11-04 23:47:00,23.5,-99.9,30.74,North,11,0.0,0.0,-999,0.00,,---,-99.99,VWS V14.01,2013-11-05 04:47:00,
2013-11-04 23:52:00,23.5,-99.9,30.74,North,11,0.0,0.0,-999,0.00,,---,-99.99,VWS V14.01,2013-11-05 04:52:00,
2013-11-04 23:57:00,23.4,-99.9,30.75,North,11,0.0,0.0,-999,0.00,,---,-99.99,VWS V14.01,2013-11-05 04:57:00,